Flag for U.S.A. Weather past 2 weeks in Newport News, Virginia, U.S.A.

Now
73 °F

Passing clouds.


Feels Like: 75 °F
Forecast: 72 / 85 °F
Wind: 3 mph from East

Location: Newport News / Williamsburg International Airport

Current Time: Aug 29, 2014 at 10:59:57 PM

Latest Report: Aug 29, 2014 at 9:54 PM


Visibility: 10 mi

Pressure: 30.20 "Hg

Humidity: 69%

Dew point: 62 °F

Location of Newport NewsLocation

Historic Weather in Newport News — Graph

°F

Newport News temperature yesterday

Maximum temperature yesterday: 91 °F (at 3:54 PM)
Minimum temperature yesterday: 71 °F (at 1:54 AM)
Average temperature yesterday: 81 °F

Past Weeks' High & Low Weather Summary

 TemperatureHumidityPressure
High91 °F (Aug 17, 2:54 PM)94% (Aug 27, 4:58 AM)30.20 "Hg (Aug 27, 4:58 AM)
Low63 °F (Aug 26, 4:54 AM)36% (Aug 27, 4:54 PM)29.76 "Hg (Aug 19, 4:54 AM)
Average79 °F68%29.99 "Hg
* Reported Aug 14 9:54 PM — Aug 29 9:54 PM, Newport News, Weather by CustomWeather, © 2014

Note: Actual official high and low records may vary slightly from our data, if they occured in-between our weather recording intervals... More about our weather records

Advertising

Newport News weather history for previous 24 hours

 ConditionsComfort  
Time TempWeatherWind HumidityBarometerVisibility
9:54 PM
Aug 29
73 °FPassing clouds.3 mph69%30.20 "Hg10 mi
8:54 PM74 °FClear.6 mph67%30.18 "Hg10 mi
7:54 PM76 °FSunny.7 mph64%30.16 "Hg10 mi
6:54 PM79 °FSunny.9 mph60%30.16 "Hg10 mi
5:54 PM81 °FSunny.9 mph53%30.15 "Hg10 mi
4:54 PM82 °FSunny.9 mph51%30.14 "Hg10 mi
2:54 PM83 °FSunny.8 mph53%30.15 "Hg10 mi
1:54 PM83 °FSunny.9 mph51%30.16 "Hg10 mi
12:54 PM82 °FSunny.9 mph55%30.16 "Hg10 mi
11:54 AM83 °FSunny.12 mph53%30.17 "Hg10 mi
10:54 AM81 °FSunny.9 mph58%30.16 "Hg10 mi
9:54 AM80 °FSunny.14 mph60%30.16 "Hg10 mi
8:54 AM79 °FPassing clouds.7 mph56%30.15 "Hg10 mi
7:54 AM76 °FPartly sunny.9 mph58%30.14 "Hg10 mi
6:54 AM71 °FPassing clouds.6 mph66%30.11 "Hg10 mi
5:54 AM74 °FClear.6 mph60%30.09 "Hg10 mi
4:54 AM76 °FPartly cloudy.7 mph60%30.08 "Hg10 mi
3:54 AM77 °FOvercast.8 mph64%30.07 "Hg10 mi
2:54 AM79 °FMostly cloudy.6 mph65%30.07 "Hg10 mi
1:54 AM79 °FOvercast.7 mph65%30.06 "Hg10 mi
12:54 AM78 °FPassing clouds.7 mph69%30.06 "Hg10 mi
11:54 PM
Aug 28
76 °FMostly cloudy.No wind80%30.04 "Hg10 mi
10:54 PM75 °FPassing clouds.No wind85%30.03 "Hg7 mi
Weather by CustomWeather, © 2014

See weather overviewHow to use our weather pages